Dewpoint
49 51 52 53 55 57 58 58 58 58 58 58 58 58 58 58 59 59 60 60 60 60 60 60 60 59 59 59 59 59 60 60 60 60 60 60 60 59 59 58 58 57 57 57 56 56 56 55 55 55 55 54 54 53 52 52 51 51 50 50 49 49 48 48 47 46 46 45 44 44 44 43 43 43 42 42 42 41 41 41 41 42 42 43 43 43
50 51 52 53 53 55 57 58 58 58 57 57 57 57 58 58 58 58 59 59 59 59 59 59 59 59 59 59 59 59 59 60 60 60 60 59 59 58 58 57 57 57 56 56 55 55 55 55 55 54 54 53 53 52 51 51 50 50 49 49 48 48 47 47 46 46 45 44 44 44 43 43 42 42 42 41 41 41 41 41 41 42 42 43 43 43
48 49 50 52 53 53 55 57 57 58 57 57 57 57 57 57 57 57 57 58 58 58 59 59 59 59 59 59 59 59 59 59 59 59 59 58 58 57 57 56 56 56 55 55 55 55 54 54 54 53 53 52 52 51 50 50 50 49 49 48 48 47 46 46 45 44 44 44 43 43 43 42 42 41 41 41 41 41 41 41 42 42 42 43 43 43
46 47 47 50 52 53 53 55 57 57 57 57 57 57 57 56 56 56 57 57 57 57 57 58 58 58 58 58 58 58 58 58 58 58 57 57 57 56 56 55 55 55 55 55 54 54 54 53 53 53 52 51 51 50 49 49 48 48 48 47 46 45 45 44 44 44 43 43 42 42 42 41 41 41 41 41 41 41 41 41 42 42 42 42 43 43
45 45 45 48 50 52 53 54 55 56 57 57 56 56 56 55 55 55 56 56 56 56 56 57 57 57 57 57 57 57 57 57 57 57 56 56 55 55 55 55 55 54 54 54 54 53 53 53 52 51 51 50 49 49 48 48 47 47 46 45 44 44 44 43 43 42 42 41 41 41 41 41 40 40 40 40 40 41 41 41 42 42 42 42 42 43
44 45 45 47 48 50 51 52 53 54 54 54 54 54 54 54 54 54 54 54 54 54 55 55 55 56 56 56 56 56 56 56 56 55 55 55 55 54 54 54 54 54 53 53 53 52 52 51 51 50 49 49 48 48 47 47 46 45 44 44 43 43 42 42 41 41 41 41 41 40 40 40 40 40 40 40 40 40 41 41 41 42 42 42 42 43
44 46 46 47 48 49 49 50 51 52 52 52 52 52 52 53 53 53 53 53 53 53 53 53 54 54 54 55 55 55 55 55 55 55 55 54 54 54 54 54 53 53 53 52 52 51 51 50 50 49 48 48 47 47 46 45 44 44 43 42 42 41 41 41 41 41 40 40 40 40 40 40 40 40 40 40 40 40 40 40 41 41 41 42 42 43
45 46 47 48 48 48 48 48 48 49 50 51 51 51 50 51 51 51 51 52 52 53 52 52 52 52 53 53 53 53 53 53 53 54 54 54 54 53 53 53 53 52 52 51 51 50 50 49 48 48 48 47 46 45 44 44 43 42 42 41 41 41 41 41 40 40 40 40 40 40 40 40 39 39 39 39 39 39 39 39 40 40 41 41 42 43
45 45 45 46 47 47 48 47 47 48 49 51 51 50 49 49 49 49 50 50 50 51 51 51 50 50 51 51 52 52 52 52 52 52 53 53 53 52 52 52 52 51 51 50 50 49 49 48 48 47 47 46 45 44 44 43 42 42 41 41 41 41 41 40 40 40 40 40 40 40 40 39 39 39 39 39 39 39 39 39 39 40 41 41 42 43
44 44 44 44 45 46 46 46 47 48 48 50 50 50 49 48 48 48 48 48 48 49 49 49 49 48 49 49 50 51 51 51 51 52 52 51 51 51 51 51 50 50 49 49 49 48 48 48 47 46 46 45 44 44 43 42 41 41 41 41 41 40 40 40 40 40 40 40 40 40 39 39 39 39 39 39 39 39 39 39 39 39 40 41 42 43
43 43 43 43 44 44 45 45 46 47 48 49 49 49 49 48 48 47 46 45 46 46 48 48 48 48 48 48 48 49 49 49 49 50 50 50 49 49 49 49 49 48 48 48 48 48 47 46 46 45 44 44 43 42 42 41 41 41 40 40 40 40 40 40 40 40 40 40 39 39 39 39 39 39 39 38 38 39 39 39 39 39 40 41 42 43
42 42 42 42 43 43 44 44 46 47 48 48 48 48 47 47 48 47 45 45 44 44 45 45 46 46 47 47 47 47 47 47 47 47 47 48 48 48 47 47 47 48 47 47 47 46 46 45 44 44 43 42 42 41 41 40 40 40 40 40 40 39 39 39 39 39 39 39 39 39 39 39 39 39 38 38 38 38 38 39 39 40 40 41 42 43
42 42 42 42 43 43 43 44 45 46 47 47 46 46 45 45 46 46 45 44 44 44 44 43 44 44 44 45 46 46 45 45 45 45 45 45 45 45 45 45 45 45 45 45 45 45 45 44 44 43 42 41 41 41 40 40 40 40 39 39 39 39 39 39 39 39 39 39 39 39 39 39 39 39 39 38 38 38 38 39 39 40 41 41 42 43
42 42 42 43 43 43 43 44 44 45 45 45 45 45 45 45 45 45 44 43 43 43 43 42 41 41 42 43 44 44 44 44 43 43 43 43 43 44 43 43 43 43 43 43 43 43 44 44 43 42 42 41 40 40 40 40 39 39 39 39 39 39 39 39 39 39 39 39 39 39 39 39 39 39 38 38 38 38 39 39 39 40 41 41 42 42
41 42 42 42 42 42 43 44 44 44 44 44 44 44 44 44 44 44 43 41 41 41 41 40 40 40 40 40 42 43 43 43 42 41 40 41 41 42 42 42 41 42 42 41 41 42 43 42 42 41 41 40 39 39 39 39 39 39 39 39 39 39 39 39 39 39 39 39 39 39 39 39 38 38 38 38 38 38 39 39 40 40 41 41 42 42
41 42 42 41 41 42 43 43 43 43 43 43 43 44 44 43 43 42 42 41 40 41 40 40 39 39 39 40 40 41 42 41 41 40 39 39 39 40 41 40 40 40 40 39 39 40 40 40 40 40 40 39 39 39 39 39 39 39 39 39 39 39 39 38 38 38 38 38 38 38 38 38 38 38 38 38 38 39 39 39 40 40 41 41 42 42
41 42 41 41 41 41 42 43 43 42 42 43 43 43 43 43 42 42 41 41 41 41 41 41 39 39 38 39 39 40 41 41 40 39 38 38 38 39 40 39 39 38 38 39 39 39 39 39 40 40 40 40 39 39 39 39 39 39 39 39 39 38 38 38 38 38 38 38 38 38 38 38 38 38 38 38 38 39 39 39 40 40 41 41 41 41
41 41 41 41 41 41 42 42 42 43 42 42 42 42 42 42 41 41 41 41 41 42 41 41 41 39 39 38 38 39 39 39 39 38 37 36 37 38 39 39 38 38 37 38 38 38 39 39 39 40 41 40 39 39 39 39 38 38 38 38 38 38 38 38 38 38 38 38 38 38 38 37 37 37 38 38 38 39 39 39 40 40 41 41 41 41
41 41 41 41 41 41 42 42 42 42 42 42 41 41 41 41 41 40 40 41 41 41 40 40 40 40 39 38 37 38 38 39 39 37 36 35 35 37 38 38 38 37 37 37 38 38 39 39 40 41 41 40 39 39 39 38 38 38 38 38 38 38 38 38 37 37 37 37 37 37 37 37 37 37 37 38 38 39 39 39 40 40 40 40 41 41
41 41 41 41 41 41 41 42 43 43 43 43 42 41 40 40 40 40 40 40 40 40 40 40 39 38 37 36 37 37 39 39 38 36 35 35 35 35 37 37 37 36 36 36 37 38 39 39 40 40 40 40 39 39 38 38 38 37 37 37 37 37 37 37 37 37 37 37 37 37 37 37 37 37 37 38 38 39 39 39 40 40 40 40 40 41
41 41 42 43 42 41 41 42 43 44 44 43 42 41 40 40 40 39 39 39 39 39 38 37 36 35 36 36 36 37 38 38 37 36 35 34 34 35 35 36 36 35 35 36 37 38 38 38 39 39 40 39 39 38 38 37 37 37 36 36 36 36 36 36 36 36 36 36 36 36 36 37 37 37 37 38 38 39 39 39 40 40 40 40 40 40
41 41 42 43 43 43 43 43 44 44 44 44 42 41 41 40 39 39 38 38 37 36 35 35 35 35 35 35 35 36 37 37 36 36 35 33 33 33 35 35 35 35 35 35 36 37 37 38 38 39 40 39 38 37 37 36 36 36 36 36 36 36 36 36 36 36 36 36 36 36 36 36 37 37 37 38 38 39 39 39 40 40 40 40 40 40
41 41 42 43 43 43 44 44 44 44 44 44 43 42 41 40 38 37 37 36 35 35 34 34 35 35 35 35 35 35 35 35 35 35 35 33 32 32 34 35 35 35 34 35 35 36 37 37 38 38 39 38 37 36 35 35 35 35 35 35 35 35 35 35 35 36 36 36 36 36 36 36 37 37 37 38 38 39 39 39 39 39 39 39 39 39
42 42 43 43 44 44 44 44 43 43 43 42 41 40 39 39 38 37 36 36 35 35 35 35 35 35 34 35 34 34 34 34 35 35 34 33 32 32 33 34 35 34 34 35 35 35 35 35 35 36 37 36 35 35 35 34 34 34 34 34 35 35 35 35 35 35 35 35 36 36 36 36 36 37 37 38 38 39 39 39 39 39 39 39 39 39
43 44 44 44 44 44 44 43 42 41 40 39 39 38 38 38 38 38 37 37 37 37 36 36 35 34 33 34 33 33 34 34 34 34 34 32 32 32 33 34 34 33 33 34 34 35 34 33 32 32 32 33 34 34 33 33 33 34 34 34 35 35 35 35 35 35 35 35 35 35 36 36 36 36 37 37 38 39 39 39 39 39 39 39 39 39
45 45 45 45 45 45 44 44 43 42 41 40 39 39 39 39 38 38 38 37 37 37 37 35 34 32 32 32 32 32 33 34 34 34 34 32 31 31 32 33 33 33 32 33 33 34 33 31 30 28 28 30 31 33 33 33 33 33 34 34 34 35 35 35 35 35 35 35 35 35 35 36 36 36 37 37 38 38 39 39 39 39 39 39 39 39
47 46 46 46 46 45 45 44 44 43 42 42 41 40 39 39 39 38 37 37 37 37 36 35 33 32 32 32 31 31 32 34 34 34 34 33 32 31 31 32 33 32 32 32 33 33 33 31 29 27 26 27 30 32 33 32 33 33 33 34 34 34 34 34 35 35 35 35 35 35 35 35 36 36 37 37 38 38 39 39 39 39 39 38 38 38
47 47 47 46 46 45 45 44 44 44 43 43 42 42 41 40 39 38 37 37 37 37 36 35 34 33 32 31 30 31 32 33 34 34 34 33 32 30 31 32 32 32 32 32 32 33 33 31 29 27 27 28 29 30 31 32 32 32 33 33 34 34 34 34 34 34 35 35 35 35 35 35 36 36 37 37 38 38 38 39 39 39 39 38 36 35
47 47 47 46 46 45 45 44 44 44 44 43 43 43 42 40 39 38 37 38 37 37 36 35 35 34 32 31 31 31 32 33 34 34 34 33 31 30 31 32 32 32 32 31 31 31 30 31 30 28 28 29 29 28 28 30 31 31 32 32 33 34 34 34 34 34 34 35 35 35 35 36 36 36 37 37 38 38 38 39 39 39 38 36 35 34
45 45 45 45 45 45 45 44 44 44 44 44 43 43 42 41 39 39 38 38 38 37 36 35 35 33 32 32 32 32 32 32 34 35 34 33 31 30 31 32 32 32 32 31 30 29 29 30 30 30 29 30 28 27 26 28 29 29 29 30 32 33 34 34 34 34 34 35 35 35 35 36 36 36 37 37 38 38 39 39 39 38 36 35 34 33
43 43 43 43 43 44 44 44 44 44 44 44 44 43 41 40 39 39 39 39 39 38 36 35 35 34 33 33 33 32 32 33 35 35 34 33 32 31 31 31 31 32 32 31 31 31 29 29 30 30 30 29 27 26 27 28 28 27 27 28 30 31 34 33 34 34 34 35 35 35 35 35 36 36 37 37 38 38 39 39 39 38 36 34 33 34
41 42 41 41 41 41 42 42 42 42 42 42 42 41 41 40 40 39 39 39 39 38 37 36 35 35 35 35 35 35 34 34 35 36 35 33 32 32 32 32 31 31 31 30 31 32 31 30 29 28 28 28 27 26 27 29 29 27 27 27 27 29 32 33 33 33 34 34 35 35 35 35 35 36 37 37 38 38 39 39 40 39 36 34 34 34
41 41 41 41 41 41 41 41 40 40 40 39 39 39 40 40 40 40 39 39 39 39 38 37 36 35 35 36 35 35 34 35 36 37 36 34 33 32 32 32 31 30 30 29 30 30 30 29 28 27 27 27 27 27 26 28 29 28 27 26 26 27 30 31 31 32 33 33 34 34 35 35 35 36 36 37 37 38 39 39 40 39 38 36 35 35
41 40 41 40 40 40 40 39 39 39 39 39 39 39 39 39 39 39 39 39 39 39 39 38 37 37 36 35 34 33 33 35 37 38 37 35 33 32 32 32 31 30 29 28 28 28 27 27 27 26 26 27 27 27 27 27 28 28 26 27 26 26 28 29 30 30 31 31 31 31 32 32 34 35 35 36 37 38 39 39 39 40 40 38 37 36
40 40 40 40 39 39 39 39 39 39 38 39 39 39 39 39 39 39 39 39 38 38 38 38 38 38 38 36 35 33 32 35 37 38 38 35 33 33 32 32 32 31 30 28 27 27 26 27 27 27 26 26 26 27 27 26 27 27 26 28 28 27 27 27 28 29 29 30 30 29 29 30 31 32 34 35 36 37 38 39 39 40 40 40 39 39
40 40 39 39 39 39 39 39 38 38 38 37 37 37 38 38 38 38 38 38 38 38 38 37 37 37 37 36 35 35 34 35 37 38 38 35 34 34 33 32 32 32 30 29 28 28 27 28 28 28 28 26 26 26 27 27 27 26 26 27 28 28 27 28 28 27 26 28 29 30 29 29 30 31 33 35 36 37 38 39 39 39 40 40 40 40
39 39 39 39 39 39 38 38 37 36 36 35 35 36 37 37 37 37 37 37 37 38 38 38 37 37 37 36 35 35 36 36 37 38 37 35 35 34 33 33 33 33 31 30 29 29 29 29 29 29 28 26 26 26 26 26 26 26 25 26 27 27 27 28 28 27 26 28 30 30 30 30 30 31 32 34 35 35 37 38 39 39 39 40 40 41
39 39 39 38 38 38 37 36 36 35 35 35 35 35 35 36 36 36 36 36 36 36 36 36 37 37 37 37 37 36 36 36 37 36 36 35 35 34 34 33 33 33 32 32 31 31 31 30 30 28 26 26 27 27 27 26 26 26 26 27 27 27 28 28 28 28 27 28 30 31 32 31 30 29 30 31 32 33 33 35 37 39 39 39 40 41
39 39 38 38 38 37 36 35 35 34 34 34 35 35 35 35 35 35 35 35 35 35 35 35 35 36 35 36 37 37 37 36 35 35 35 35 35 34 34 34 33 33 33 32 32 32 33 32 31 29 27 27 27 27 26 26 26 26 26 26 27 28 29 29 29 28 27 27 29 31 31 29 28 28 29 29 29 30 31 33 35 38 37 37 38 39
39 39 39 39 38 36 35 35 34 34 34 35 35 35 35 35 35 35 35 35 35 35 35 35 35 35 35 36 36 37 36 36 35 35 34 34 34 34 35 34 33 33 33 32 31 32 32 32 32 31 30 27 26 26 26 25 26 26 28 26 26 27 30 30 28 26 26 25 26 28 29 28 28 29 29 29 29 30 30 31 34 36 37 36 36 38
39 39 38 37 36 35 35 34 34 34 34 35 35 35 35 34 33 33 33 34 34 34 34 34 34 33 33 33 33 34 34 35 35 35 33 33 34 34 35 34 34 33 33 32 31 31 32 32 31 30 28 28 27 26 26 26 27 29 29 26 26 27 30 30 29 27 26 25 26 27 30 30 30 30 30 30 30 30 31 31 34 36 37 35 36 37
39 38 36 35 34 34 33 34 35 35 35 35 34 34 33 33 33 33 33 33 32 32 32 33 33 32 31 32 32 32 33 33 34 34 33 33 33 34 34 34 34 33 33 32 32 32 32 32 31 30 29 29 28 27 26 27 29 30 30 27 26 28 29 30 28 26 25 26 26 26 29 28 27 27 29 30 30 30 33 33 35 38 39 37 37 37
38 35 34 34 34 34 35 35 35 35 35 34 33 33 32 33 34 34 33 32 32 32 32 33 33 32 31 30 30 31 32 32 33 34 34 33 33 33 34 34 34 34 33 33 32 32 32 32 30 30 30 29 29 28 27 27 28 28 28 28 28 27 26 28 27 26 25 26 26 25 24 25 25 26 27 30 31 32 33 36 39 40 39 38 38 38
35 34 33 34 34 35 35 35 34 34 34 33 33 32 32 33 34 34 33 33 32 33 32 32 32 31 30 29 30 30 31 32 32 33 34 35 34 33 34 34 34 34 34 33 32 31 30 30 29 28 27 28 29 28 27 27 27 27 27 28 28 27 26 28 27 26 25 26 26 25 23 23 22 23 26 29 31 32 34 35 37 38 39 39 38 39
34 33 34 34 34 34 34 33 33 33 33 33 32 32 33 34 34 34 33 33 32 32 32 32 32 31 29 29 29 30 30 31 31 32 33 35 35 35 34 33 33 33 33 33 32 31 30 29 27 27 27 28 28 28 27 27 27 28 29 29 28 27 26 27 26 26 26 26 26 25 23 22 21 23 27 30 33 34 35 36 38 39 39 39 39 39
34 34 34 34 34 34 34 33 33 33 32 32 32 33 33 33 33 33 33 33 32 32 32 33 32 30 29 29 29 29 29 30 30 31 31 32 33 34 34 34 34 33 33 32 32 32 32 30 29 28 29 28 28 27 27 27 27 28 29 29 28 26 26 26 26 25 24 24 25 25 24 22 23 26 30 33 34 35 36 37 38 38 38 39 39 40
34 34 34 33 33 33 33 33 33 32 32 32 32 32 32 32 33 33 33 33 33 32 33 32 31 30 29 29 29 29 29 29 29 30 30 31 32 32 33 33 34 34 33 32 32 32 31 30 30 29 29 28 27 26 26 27 27 28 28 27 27 27 27 27 26 24 22 24 24 23 22 23 26 29 31 32 33 35 37 38 38 38 38 39 39 40
35 34 34 34 33 33 33 33 32 32 32 32 32 32 32 33 33 33 32 32 33 33 33 32 30 30 29 29 29 29 29 29 29 29 30 30 31 32 32 32 33 33 33 33 33 33 32 31 30 30 29 28 27 26 26 27 27 26 26 26 27 27 26 27 26 25 24 24 23 22 21 24 26 29 30 32 34 35 37 38 39 39 39 39 40 40
35 35 34 34 33 33 32 32 32 32 31 31 31 32 32 33 34 34 33 33 33 33 32 31 30 29 29 29 29 30 30 29 29 29 30 30 31 31 32 32 32 32 33 33 33 34 34 34 33 33 31 29 28 27 27 27 26 26 25 25 26 26 26 27 27 27 26 24 23 22 22 23 24 25 27 32 35 36 37 38 38 39 39 40 40 41
35 35 34 34 33 33 32 32 32 31 31 31 31 31 32 33 33 33 33 33 33 32 32 31 30 29 29 29 29 30 30 29 29 29 30 30 31 31 31 31 31 31 31 31 31 31 31 32 33 34 35 33 30 29 27 27 26 26 26 25 24 24 25 26 27 27 26 26 25 24 23 23 23 23 26 31 35 36 37 37 38 39 39 40 41 41
35 34 34 34 33 33 32 32 32 32 31 31 31 31 32 32 32 32 32 32 32 32 31 31 30 30 29 29 29 29 29 29 29 29 30 31 31 31 31 31 31 31 30 29 29 29 28 28 29 30 32 34 34 32 28 27 27 27 28 26 25 23 24 25 26 26 27 27 26 25 25 26 26 25 26 30 33 36 36 36 37 38 39 40 40 41